This demonstration page uses our WeatherBlox Daily Observations layout. Learn more.

Left ArrowRight Arrow

Hourly Observations for October 16, 2016

Temp ( °F °C ) Dew Point ( °F °C ) Humidity (%) Winds ( mph kmh ) Pressure ( in mb ) Visibility ( mi km ) Precip ( " mm )
12:16 am 00:16 Clear 63 17 59 15 88 88 S 6 9 30.09 1019 10 16.0934 N/A
12:37 am 00:37 Clear 63 17 57 14 83 83 SSW 3 6 30.09 1019 10 16.0934 N/A
12:56 am 00:56 Clear 63 17 57 14 83 83 S 5 7 30.09 1019 10 16.0934 N/A
1:16 am 01:16 Clear 61 16 57 14 88 88 S 5 7 30.09 1019 10 16.0934 N/A
1:37 am 01:37 Clear 61 16 57 14 88 88 S 5 7 30.09 1019 10 16.0934 N/A
1:56 am 01:56 Clear 61 16 57 14 88 88 S 5 7 30.09 1019 10 16.0934 N/A
2:16 am 02:16 Clear 61 16 57 14 88 88 S 5 7 30.09 1019 10 16.0934 N/A
2:37 am 02:37 Clear 61 16 57 14 88 88 S 5 7 30.09 1019 10 16.0934 N/A
2:56 am 02:56 Clear 61 16 57 14 88 88 S 5 7 30.09 1019 10 16.0934 N/A
3:16 am 03:16 Clear 61 16 57 14 88 88 S 6 9 30.09 1019 10 16.0934 N/A
3:37 am 03:37 Clear 61 16 57 14 88 88 S 6 9 30.09 1019 10 16.0934 N/A
3:56 am 03:56 Clear 61 16 57 14 88 88 S 6 9 30.06 1018 10 16.0934 N/A
4:16 am 04:16 Clear 61 16 57 14 88 88 S 6 9 30.06 1018 10 16.0934 N/A
4:36 am 04:36 Clear 61 16 57 14 88 88 S 7 11 30.06 1018 10 16.0934 N/A
4:56 am 04:56 Clear 61 16 57 14 88 88 S 6 9 30.06 1018 10 16.0934 N/A
5:17 am 05:17 Clear 61 16 57 14 88 88 S 6 9 30.06 1018 10 16.0934 N/A
5:36 am 05:36 Clear 61 16 57 14 88 88 S 7 11 30.06 1018 10 16.0934 N/A
5:56 am 05:56 Clear 61 16 57 14 88 88 S 7 11 30.06 1018 10 16.0934 N/A
6:16 am 06:16 Clear 61 16 57 14 88 88 S 6 9 30.06 1018 10 16.0934 N/A
6:36 am 06:36 Clear 59 15 57 14 94 94 S 7 11 30.06 1018 10 16.0934 N/A
6:57 am 06:57 Clear 59 15 57 14 94 94 S 7 11 30.06 1018 10 16.0934 N/A
7:16 am 07:16 Clear 59 15 57 14 94 94 S 7 11 30.06 1018 10 16.0934 N/A
7:36 am 07:36 Clear 59 15 57 14 94 94 S 7 11 30.06 1018 10 16.0934 N/A
7:57 am 07:57 Sunny 59 15 55 13 88 88 S 7 11 30.06 1018 10 16.0934 N/A
8:16 am 08:16 Sunny 59 15 55 13 88 88 S 7 11 30.06 1018 10 16.0934 N/A
8:36 am 08:36 Sunny 61 16 55 13 83 83 S 7 11 30.03 1017 10 16.0934 N/A
8:57 am 08:57 Sunny 61 16 57 14 88 88 S 10 17 30.03 1017 10 16.0934 N/A
9:16 am 09:16 Sunny 63 17 57 14 83 83 S 12 19 30.03 1017 10 16.0934 N/A
9:36 am 09:36 Sunny 64 18 57 14 78 78 SSW 12 19 30.06 1018 10 16.0934 N/A
9:57 am 09:57 Sunny 64 18 57 14 78 78 S 14 22 30.06 1018 10 16.0934 N/A
10:16 am 10:16 Sunny 66 19 57 14 73 73 S 12 19 30.06 1018 10 16.0934 N/A
10:36 am 10:36 Sunny 68 20 59 15 73 73 SSW 13 20 30.03 1017 10 16.0934 N/A
10:57 am 10:57 Sunny 70 21 59 15 69 69 SSW 18 30 30 1016 10 16.0934 N/A
11:16 am 11:16 Sunny 72 22 59 15 65 65 SSW 18 30 30 1016 10 16.0934 N/A
11:36 am 11:36 Sunny 73 23 59 15 61 61 SSW 17 28 30 1016 10 16.0934 N/A
11:57 am 11:57 Partly Cloudy 75 24 59 15 57 57 SSW 17 28 30 1016 10 16.0934 N/A
12:16 pm 12:16 Mostly Cloudy 75 24 59 15 57 57 SW 18 30 30 1016 10 16.0934 N/A
12:36 pm 12:36 Cloudy 73 23 59 15 61 61 SW 16 26 30 1016 10 16.0934 N/A
12:57 pm 12:57 Cloudy 75 24 59 15 57 57 SW 12 19 30 1016 10 16.0934 N/A
1:16 pm 13:16 Cloudy 73 23 59 15 61 61 SW 12 19 30 1016 10 16.0934 N/A
1:36 pm 13:36 Cloudy 73 23 59 15 61 61 SW 15 24 30 1016 10 16.0934 N/A
1:57 pm 13:57 Cloudy 72 22 61 16 69 69 WSW 9 15 30 1016 10 16.0934 N/A
2:16 pm 14:16 Cloudy 70 21 61 16 73 73 SW 14 22 30 1016 7 11.26538 N/A
2:36 pm 14:36 Cloudy 68 20 63 17 83 83 SSW 9 15 30.03 1017 7 11.26538 N/A
2:57 pm 14:57 Cloudy 66 19 63 17 88 88 SSW 6 9 30 1016 7 11.26538 N/A
3:16 pm 15:16 Cloudy 66 19 64 18 94 94 SW 5 7 30 1016 5 8.0467 N/A
3:36 pm 15:36 Cloudy 68 20 64 18 88 88 SW 5 7 30 1016 10 16.0934 N/A
3:56 pm 15:56 Cloudy 68 20 64 18 88 88 SSW 6 9 30 1016 5 8.0467 N/A
4:16 pm 16:16 Mostly Cloudy 66 19 64 18 94 94 SSW 6 9 30 1016 10 16.0934 N/A
4:37 pm 16:37 Cloudy 66 19 64 18 94 94 SSW 5 7 30 1016 10 16.0934 N/A
4:56 pm 16:56 Cloudy 66 19 64 18 94 94 N N/A 30 1016 5 8.0467 N/A
5:16 pm 17:16 Cloudy 66 19 64 18 94 94 N N/A 29.97 1015 4 6.43736 N/A
5:37 pm 17:37 Cloudy 66 19 64 18 94 94 N N/A 29.97 1015 4 6.43736 N/A
5:56 pm 17:56 Cloudy 66 19 64 18 94 94 SE 3 6 29.97 1015 10 16.0934 N/A
6:16 pm 18:16 Cloudy 66 19 64 18 94 94 SSE 5 7 29.97 1015 10 16.0934 N/A
6:37 pm 18:37 Mostly Cloudy 66 19 64 18 94 94 S 3 6 29.94 1014 10 16.0934 N/A
6:56 pm 18:56 Cloudy 68 20 64 18 88 88 S 5 7 29.94 1014 10 16.0934 N/A
7:16 pm 19:16 Cloudy 68 20 64 18 88 88 S 6 9 29.94 1014 10 16.0934 N/A
7:37 pm 19:37 Cloudy 68 20 64 18 88 88 S 5 7 29.94 1014 10 16.0934 N/A
7:56 pm 19:56 Cloudy 68 20 63 17 83 83 S 5 7 29.97 1015 10 16.0934 N/A
8:16 pm 20:16 Cloudy 70 21 63 17 78 78 S 6 9 29.94 1014 10 16.0934 N/A
8:37 pm 20:37 Cloudy 70 21 63 17 78 78 S 7 11 29.94 1014 10 16.0934 N/A
8:56 pm 20:56 Cloudy 70 21 63 17 78 78 S 7 11 29.94 1014 10 16.0934 N/A
9:16 pm 21:16 Mostly Cloudy 68 20 63 17 83 83 S 8 13 29.97 1015 10 16.0934 N/A
9:37 pm 21:37 Partly Cloudy 68 20 63 17 83 83 S 7 11 29.97 1015 10 16.0934 N/A
9:56 pm 21:56 Partly Cloudy 68 20 61 16 78 78 S 7 11 29.97 1015 10 16.0934 N/A
10:17 pm 22:17 Clear 68 20 61 16 78 78 S 7 11 29.97 1015 10 16.0934 N/A
10:37 pm 22:37 Clear 68 20 61 16 78 78 S 9 15 29.97 1015 10 16.0934 N/A
10:56 pm 22:56 Clear 68 20 61 16 78 78 SSW 9 15 29.97 1015 10 16.0934 N/A
11:17 pm 23:17 Clear 68 20 61 16 78 78 SSW 7 11 29.97 1015 10 16.0934 N/A
11:37 pm 23:37 Clear 66 19 61 16 83 83 S 7 11 29.97 1015 10 16.0934 N/A
11:56 pm 23:56 Clear 66 19 61 16 83 83 S 7 11 29.97 1015 10 16.0934 N/A

Powered by AerisWeather